This is the latest recevied weather packets stored in our database for station/object N9CQL. If no packets are shown the sender has not sent any weather packets the latest 1 day(s).
| Time | Temp. | Humidity | Pressure | Rain* | Wind** | Luminosity | Snow |
|---|---|---|---|---|---|---|---|
| 1778081377 | 12.78° C | 40% | 1012.9 hPa | 0 mm | - | 246 W/m² | - |
| 1778080469 | 11.67° C | 38% | 1013.2 hPa | 0 mm | - | 296 W/m² | - |
| 1778080167 | 12.78° C | 40% | 1012.9 hPa | 0 mm | - | 294 W/m² | - |
| 1778079256 | 12.22° C | 40% | 1013.1 hPa | 0 mm | - | 190 W/m² | - |
| 1778077441 | 11.67° C | 49% | 1012.8 hPa | 0 mm | - | 147 W/m² | - |
| 1778076231 | 10.56° C | 43% | 1013 hPa | 0 mm | - | 165 W/m² | - |
| 1778075625 | 11.11° C | 49% | 1012.7 hPa | 0 mm | - | 156 W/m² | - |
| 1778074715 | 10° C | 49% | 1012.5 hPa | 0 mm | - | 105 W/m² | - |
| 1778074412 | 10° C | 51% | 1012.4 hPa | 0 mm | - | 90 W/m² | - |
| 1778074108 | 10° C | 51% | 1012.6 hPa | 0 mm | - | 94 W/m² | - |
| 1778073503 | 10° C | 53% | 1012.1 hPa | 0 mm | - | 128 W/m² | - |
| 1778072593 | 8.89° C | 55% | 1012.4 hPa | 0 mm | - | 88 W/m² | - |
| 1778072291 | 8.89° C | 60% | 1012.1 hPa | 0 mm | - | 94 W/m² | - |
| 1778071989 | 8.89° C | 63% | 1012.1 hPa | 0 mm | - | 95 W/m² | - |
| 1778071384 | 8.33° C | 67% | 1011.9 hPa | 0 mm | - | 81 W/m² | - |
| 1778068359 | 6.11° C | 76% | 1011.6 hPa | 0 mm | - | 47 W/m² | - |
| 1778067754 | 5.56° C | 78% | 1011.6 hPa | 0 mm | - | 31 W/m² | - |
| 1778066544 | 5° C | 79% | 1011.2 hPa | 0 mm | - | 21 W/m² | - |
| 1778065635 | 4.44° C | 79% | 1011.3 hPa | 0 mm | - | 12 W/m² | - |
| 1778065333 | 4.44° C | 79% | 1011.2 hPa | 0 mm | - | 10 W/m² | - |
| 1778065029 | 4.44° C | 78% | 1011.2 hPa | 0 mm | - | 7 W/m² | - |
| 1778064726 | 4.44° C | 78% | 1011.2 hPa | 0 mm | - | 4 W/m² | - |
| 1778062607 | 4.44° C | 74% | 1010.4 hPa | 0 mm | - | 0 W/m² | - |
| 1778062304 | 4.44° C | 74% | 1010.4 hPa | 0 mm | - | 0 W/m² | - |
| 1778062003 | 4.44° C | 73% | 1010.4 hPa | 0 mm | - | 0 W/m² | - |
* Rain latest hour (hover to see other rain measurements)
** Current wind speed in m/s (hover to see current wind gust speed)